Time,TemperatureF,DewpointF,PressureIn,WindDirection,WindDirectionDegrees,WindSpeedMPH,WindSpeedGustMPH,Humidity,HourlyPrecipIn,Conditions,Clouds,dailyrainin,SoftwareType,DateUTC
2013-04-29 00:00:00,56.0,53.1,29.87,WSW,256,0.0,2.0,90,0.00,,---,0.00,VWS V15.00,2013-04-29 04:00:00,
2013-04-29 00:01:00,56.1,53.2,29.87,WSW,256,0.0,2.0,90,0.00,,---,0.12,VWS V14.01,2013-04-29 04:01:00,
2013-04-29 00:06:00,56.0,53.4,29.87,West,262,0.0,0.0,91,0.00,,---,0.00,VWS V14.01,2013-04-29 04:06:00,
2013-04-29 00:11:00,55.9,53.3,29.87,West,269,1.0,2.0,91,0.00,,---,0.00,VWS V14.01,2013-04-29 04:11:00,
2013-04-29 00:16:00,56.0,53.4,29.87,West,271,1.0,2.0,91,0.00,,---,0.00,VWS V14.01,2013-04-29 04:16:00,
2013-04-29 00:21:00,55.9,53.3,29.87,West,271,0.0,2.0,91,0.00,,---,0.00,VWS V14.01,2013-04-29 04:21:00,
2013-04-29 00:26:00,55.8,53.2,29.87,West,271,0.0,2.0,91,0.00,,---,0.00,VWS V14.01,2013-04-29 04:26:00,
2013-04-29 00:30:00,55.8,53.2,29.87,West,270,0.0,2.0,91,0.00,,---,0.00,VWS V15.00,2013-04-29 04:30:00,
2013-04-29 00:31:00,55.8,53.2,29.87,West,266,1.0,2.0,91,0.00,,---,0.00,VWS V14.01,2013-04-29 04:31:00,
2013-04-29 00:36:00,55.8,53.2,29.87,WNW,283,1.0,2.0,91,0.00,,---,0.00,VWS V14.01,2013-04-29 04:36:00,
2013-04-29 00:41:00,55.7,53.1,29.87,West,273,1.0,2.0,91,0.00,,---,0.00,VWS V14.01,2013-04-29 04:41:00,
2013-04-29 00:46:00,55.8,53.5,29.87,West,278,1.0,2.0,92,0.00,,---,0.00,VWS V14.01,2013-04-29 04:46:00,
2013-04-29 00:51:00,55.8,53.5,29.87,West,262,1.0,2.0,92,0.00,,---,0.00,VWS V14.01,2013-04-29 04:51:00,
2013-04-29 00:56:00,55.9,53.6,29.87,West,269,1.0,2.0,92,0.00,,---,0.00,VWS V14.01,2013-04-29 04:56:00,
2013-04-29 01:00:00,55.8,53.5,29.87,West,266,0.0,2.0,92,0.00,,---,0.00,VWS V15.00,2013-04-29 05:00:00,
2013-04-29 01:01:00,55.8,53.5,29.87,West,267,0.0,2.0,92,0.00,,---,0.00,VWS V14.01,2013-04-29 05:01:00,
2013-04-29 01:06:00,55.7,53.4,29.87,West,267,0.0,0.0,92,0.00,,---,0.00,VWS V14.01,2013-04-29 05:06:00,
2013-04-29 01:11:00,55.7,53.4,29.87,West,266,0.0,0.0,92,0.00,,---,0.00,VWS V14.01,2013-04-29 05:11:00,
2013-04-29 01:16:00,55.7,53.4,29.87,West,267,0.0,0.0,92,0.00,,---,0.00,VWS V14.01,2013-04-29 05:16:00,
2013-04-29 01:21:00,55.7,53.4,29.87,West,276,0.0,0.0,92,0.00,,---,0.00,VWS V14.01,2013-04-29 05:21:00,
2013-04-29 01:26:00,55.7,53.4,29.87,West,276,0.0,0.0,92,0.00,,---,0.00,VWS V14.01,2013-04-29 05:26:00,
2013-04-29 01:30:00,55.8,53.5,29.88,West,276,0.0,0.0,92,0.00,,---,0.00,VWS V15.00,2013-04-29 05:30:00,
2013-04-29 01:31:00,55.7,53.4,29.88,West,276,0.0,0.0,92,0.00,,---,0.00,VWS V14.01,2013-04-29 05:31:00,
2013-04-29 01:36:00,55.8,53.5,29.88,West,275,0.0,0.0,92,0.00,,---,0.00,VWS V14.01,2013-04-29 05:36:00,
2013-04-29 01:41:00,55.8,53.5,29.88,West,280,0.0,0.0,92,0.00,,---,0.00,VWS V14.01,2013-04-29 05:41:00,
2013-04-29 01:46:00,55.9,53.6,29.88,West,259,0.0,0.0,92,0.00,,---,0.00,VWS V14.01,2013-04-29 05:46:00,
2013-04-29 01:51:00,56.0,53.7,29.88,West,259,0.0,0.0,92,0.00,,---,0.00,VWS V14.01,2013-04-29 05:51:00,
2013-04-29 01:56:00,56.0,53.7,29.88,West,259,0.0,0.0,92,0.00,,---,0.00,VWS V14.01,2013-04-29 05:56:00,
2013-04-29 02:00:00,56.1,53.8,29.88,West,259,0.0,0.0,92,0.00,,---,0.00,VWS V15.00,2013-04-29 06:00:00,
2013-04-29 02:01:00,56.1,53.8,29.88,West,259,0.0,0.0,92,0.00,,---,0.00,VWS V14.01,2013-04-29 06:01:00,
2013-04-29 02:06:00,56.1,53.8,29.88,West,259,0.0,0.0,92,0.00,,---,0.00,VWS V14.01,2013-04-29 06:06:00,
2013-04-29 02:11:00,56.1,53.8,29.88,West,259,0.0,0.0,92,0.00,,---,0.00,VWS V14.01,2013-04-29 06:11:00,
2013-04-29 02:16:00,56.1,53.8,29.88,West,259,0.0,0.0,92,0.00,,---,0.00,VWS V14.01,2013-04-29 06:16:00,
2013-04-29 02:21:00,56.2,53.9,29.88,West,259,0.0,0.0,92,0.00,,---,0.00,VWS V14.01,2013-04-29 06:21:00,
2013-04-29 02:26:00,56.2,53.9,29.88,West,270,0.0,0.0,92,0.00,,---,0.00,VWS V14.01,2013-04-29 06:26:00,
2013-04-29 02:30:00,56.2,53.9,29.88,West,270,0.0,0.0,92,0.00,,---,0.00,VWS V15.00,2013-04-29 06:30:00,
2013-04-29 02:31:00,56.2,53.9,29.88,West,270,0.0,0.0,92,0.00,,---,0.00,VWS V14.01,2013-04-29 06:31:00,
2013-04-29 02:36:00,56.2,53.9,29.88,SW,236,0.0,0.0,92,0.00,,---,0.00,VWS V14.01,2013-04-29 06:36:00,
2013-04-29 02:41:00,56.2,53.9,29.88,SW,235,0.0,0.0,92,0.00,,---,0.00,VWS V14.01,2013-04-29 06:41:00,
2013-04-29 02:46:00,56.2,53.9,29.88,SW,235,0.0,0.0,92,0.00,,---,0.00,VWS V14.01,2013-04-29 06:46:00,
2013-04-29 02:51:00,56.2,53.9,29.88,SW,222,0.0,0.0,92,0.00,,---,0.00,VWS V14.01,2013-04-29 06:51:00,
2013-04-29 02:56:00,56.2,53.9,29.88,SW,222,0.0,0.0,92,0.00,,---,0.00,VWS V14.01,2013-04-29 06:56:00,
2013-04-29 03:00:00,56.2,54.2,29.88,SSW,208,2.0,2.0,93,0.00,,---,0.00,VWS V15.00,2013-04-29 07:00:00,
2013-04-29 03:01:00,56.2,54.2,29.88,SSW,205,0.0,2.0,93,0.00,,---,0.00,VWS V14.01,2013-04-29 07:01:00,
2013-04-29 03:06:00,56.2,54.2,29.88,South,186,0.0,2.0,93,0.00,,---,0.00,VWS V14.01,2013-04-29 07:06:00,
2013-04-29 03:11:00,56.2,54.2,29.88,SE,124,1.0,2.0,93,0.00,,---,0.00,VWS V14.01,2013-04-29 07:11:00,
2013-04-29 03:16:00,56.2,54.2,29.88,WNW,284,0.0,2.0,93,0.00,,---,0.00,VWS V14.01,2013-04-29 07:16:00,
2013-04-29 03:21:00,56.1,54.1,29.88,SW,216,0.0,2.0,93,0.00,,---,0.00,VWS V14.01,2013-04-29 07:21:00,
2013-04-29 03:26:00,56.2,54.2,29.89,WSW,245,0.0,2.0,93,0.00,,---,0.00,VWS V14.01,2013-04-29 07:26:00,
2013-04-29 03:30:00,56.1,54.1,29.88,WSW,255,1.0,2.0,93,0.00,,---,0.00,VWS V15.00,2013-04-29 07:30:00,
2013-04-29 03:31:00,56.2,54.2,29.88,WSW,245,0.0,2.0,93,0.00,,---,0.00,VWS V14.01,2013-04-29 07:31:00,
2013-04-29 03:36:00,56.2,54.2,29.88,West,275,0.0,2.0,93,0.00,,---,0.00,VWS V14.01,2013-04-29 07:36:00,
2013-04-29 03:41:00,56.1,54.1,29.88,West,266,0.0,2.0,93,0.00,,---,0.00,VWS V14.01,2013-04-29 07:41:00,
2013-04-29 03:46:00,56.1,54.4,29.89,West,270,0.0,2.0,94,0.00,,---,0.00,VWS V14.01,2013-04-29 07:46:00,
2013-04-29 03:51:00,56.1,54.4,29.89,West,270,0.0,2.0,94,0.00,,---,0.00,VWS V14.01,2013-04-29 07:51:00,
2013-04-29 03:56:00,56.1,54.4,29.89,West,266,0.0,2.0,94,0.00,,---,0.00,VWS V14.01,2013-04-29 07:56:00,
2013-04-29 04:00:00,56.0,54.3,29.89,West,260,0.0,2.0,94,0.00,,---,0.00,VWS V15.00,2013-04-29 08:00:00,
2013-04-29 04:01:00,56.1,54.4,29.89,West,262,0.0,2.0,94,0.00,,---,0.00,VWS V14.01,2013-04-29 08:01:00,
2013-04-29 04:06:00,56.0,54.3,29.89,West,260,0.0,0.0,94,0.00,,---,0.00,VWS V14.01,2013-04-29 08:06:00,
2013-04-29 04:11:00,56.0,54.3,29.89,West,262,0.0,0.0,94,0.00,,---,0.00,VWS V14.01,2013-04-29 08:11:00,
2013-04-29 04:15:00,56.0,54.6,29.89,West,259,0.0,0.0,95,0.00,,---,0.00,VWS V14.01,2013-04-29 08:15:00,
2013-04-29 04:21:00,55.9,54.5,29.89,West,259,0.0,0.0,95,0.00,,---,0.00,VWS V14.01,2013-04-29 08:21:00,
2013-04-29 04:26:00,55.9,54.5,29.89,SW,216,0.0,0.0,95,0.00,,---,0.00,VWS V14.01,2013-04-29 08:26:00,
2013-04-29 04:30:00,55.9,54.5,29.89,SW,216,0.0,0.0,95,0.00,,---,0.00,VWS V15.00,2013-04-29 08:30:00,
2013-04-29 04:31:00,55.9,54.5,29.89,SW,215,0.0,0.0,95,0.00,,---,0.00,VWS V14.01,2013-04-29 08:31:00,
2013-04-29 04:36:00,55.9,54.5,29.89,SW,214,0.0,0.0,95,0.00,,---,0.00,VWS V14.01,2013-04-29 08:36:00,
2013-04-29 04:40:00,55.9,54.5,29.90,SW,215,0.0,0.0,95,0.00,,---,0.00,VWS V14.01,2013-04-29 08:40:00,
2013-04-29 04:46:00,55.9,54.5,29.90,SW,215,0.0,0.0,95,0.00,,---,0.00,VWS V14.01,2013-04-29 08:46:00,
2013-04-29 04:51:00,55.9,54.5,29.90,SW,217,0.0,0.0,95,0.00,,---,0.00,VWS V14.01,2013-04-29 08:51:00,
2013-04-29 04:56:00,55.9,54.5,29.90,SW,222,0.0,0.0,95,0.00,,---,0.00,VWS V14.01,2013-04-29 08:56:00,
2013-04-29 05:00:00,55.8,54.7,29.90,SW,222,0.0,0.0,96,0.00,,---,0.00,VWS V15.00,2013-04-29 09:00:00,
2013-04-29 05:01:00,55.8,54.7,29.90,SW,222,0.0,0.0,96,0.00,,---,0.00,VWS V14.01,2013-04-29 09:01:00,
2013-04-29 05:06:00,55.8,54.7,29.90,SW,222,0.0,0.0,96,0.00,,---,0.00,VWS V14.01,2013-04-29 09:06:00,
2013-04-29 05:11:00,55.8,54.7,29.90,SW,222,0.0,0.0,96,0.00,,---,0.00,VWS V14.01,2013-04-29 09:11:00,
2013-04-29 05:15:00,55.8,54.7,29.90,WNW,285,0.0,0.0,96,0.00,,---,0.00,VWS V14.01,2013-04-29 09:15:00,
2013-04-29 05:20:00,55.8,54.7,29.90,WSW,238,0.0,0.0,96,0.00,,---,0.00,VWS V14.01,2013-04-29 09:20:00,
2013-04-29 05:25:00,55.8,54.7,29.90,WSW,239,0.0,0.0,96,0.00,,---,0.00,VWS V14.01,2013-04-29 09:25:00,
2013-04-29 05:30:00,55.8,54.7,29.90,WNW,302,0.0,0.0,96,0.00,,---,0.00,VWS V14.01,2013-04-29 09:30:00,
2013-04-29 05:35:00,55.8,54.7,29.90,West,278,0.0,0.0,96,0.00,,---,0.00,VWS V14.01,2013-04-29 09:35:00,
2013-04-29 05:40:00,55.8,54.7,29.90,West,266,0.0,0.0,96,0.00,,---,0.00,VWS V14.01,2013-04-29 09:40:00,
2013-04-29 05:45:00,55.8,54.7,29.90,West,266,0.0,0.0,96,0.00,,---,0.00,VWS V14.01,2013-04-29 09:45:00,
2013-04-29 05:50:00,55.8,54.7,29.90,SW,233,0.0,0.0,96,0.00,,---,0.00,VWS V14.01,2013-04-29 09:50:00,
2013-04-29 05:55:00,55.8,54.7,29.90,SW,233,0.0,0.0,96,0.00,,---,0.00,VWS V14.01,2013-04-29 09:55:00,
2013-04-29 06:00:00,55.8,54.7,29.91,SW,233,0.0,0.0,96,0.00,,---,0.00,VWS V14.01,2013-04-29 10:00:00,
2013-04-29 06:05:00,55.8,54.7,29.91,SW,234,0.0,0.0,96,0.00,,---,0.00,VWS V14.01,2013-04-29 10:05:00,
2013-04-29 06:10:00,55.8,54.7,29.91,SW,236,0.0,0.0,96,0.00,,---,0.00,VWS V14.01,2013-04-29 10:10:00,
2013-04-29 06:15:00,55.8,55.0,29.91,WSW,238,0.0,0.0,97,0.00,,---,0.00,VWS V14.01,2013-04-29 10:15:00,
2013-04-29 06:20:00,55.7,54.9,29.91,WSW,238,0.0,0.0,97,0.00,,---,0.00,VWS V14.01,2013-04-29 10:20:00,
2013-04-29 06:26:00,55.7,54.9,29.91,WSW,238,0.0,0.0,97,0.00,,---,0.00,VWS V14.01,2013-04-29 10:26:00,
2013-04-29 06:30:00,55.7,54.9,29.92,WSW,238,0.0,0.0,97,0.01,,---,0.01,VWS V15.00,2013-04-29 10:30:00,
2013-04-29 06:31:00,55.7,54.9,29.92,WSW,238,0.0,0.0,97,0.01,,---,0.01,VWS V14.01,2013-04-29 10:31:00,
2013-04-29 06:36:00,55.7,54.9,29.92,West,274,0.0,0.0,97,0.01,,---,0.01,VWS V14.01,2013-04-29 10:36:00,
2013-04-29 06:41:00,55.7,54.9,29.92,West,274,0.0,0.0,97,0.01,,---,0.01,VWS V14.01,2013-04-29 10:41:00,
2013-04-29 06:46:00,55.7,54.9,29.92,West,274,0.0,0.0,97,0.02,,---,0.02,VWS V14.01,2013-04-29 10:46:00,
2013-04-29 06:51:00,55.6,54.8,29.92,West,274,0.0,0.0,97,0.02,,---,0.02,VWS V14.01,2013-04-29 10:51:00,
2013-04-29 06:56:00,55.6,55.0,29.93,West,274,0.0,0.0,98,0.02,,---,0.02,VWS V14.01,2013-04-29 10:56:00,
2013-04-29 07:00:00,55.6,55.0,29.93,West,274,0.0,0.0,98,0.03,,---,0.03,VWS V15.00,2013-04-29 11:00:00,
2013-04-29 07:01:00,55.6,55.0,29.93,West,274,0.0,0.0,98,0.03,,---,0.03,VWS V14.01,2013-04-29 11:01:00,
2013-04-29 07:06:00,55.6,55.0,29.93,West,277,0.0,0.0,98,0.03,,---,0.03,VWS V14.01,2013-04-29 11:06:00,
2013-04-29 07:11:00,55.6,55.0,29.93,West,277,0.0,0.0,98,0.04,,---,0.04,VWS V14.01,2013-04-29 11:11:00,
2013-04-29 07:16:00,55.5,55.0,29.93,West,276,0.0,1.0,98,0.05,,---,0.05,VWS V14.01,2013-04-29 11:16:00,
2013-04-29 07:21:00,55.5,55.0,29.93,West,277,0.0,1.0,98,0.05,,---,0.05,VWS V14.01,2013-04-29 11:21:00,
2013-04-29 07:26:00,55.6,55.0,29.93,West,277,0.0,1.0,98,0.05,,---,0.05,VWS V14.01,2013-04-29 11:26:00,
2013-04-29 07:30:00,55.6,55.0,29.94,West,277,0.0,1.0,98,0.05,,---,0.05,VWS V15.00,2013-04-29 11:30:00,
2013-04-29 07:31:00,55.6,55.0,29.94,West,277,1.0,1.0,98,0.05,,---,0.05,VWS V14.01,2013-04-29 11:31:00,
2013-04-29 07:36:00,55.6,55.0,29.94,West,277,0.0,1.0,98,0.04,,---,0.05,VWS V14.01,2013-04-29 11:36:00,
2013-04-29 07:41:00,55.7,55.2,29.94,West,277,0.0,1.0,98,0.04,,---,0.05,VWS V14.01,2013-04-29 11:41:00,
2013-04-29 07:46:00,55.7,55.2,29.94,West,277,0.0,1.0,98,0.04,,---,0.05,VWS V14.01,2013-04-29 11:46:00,
2013-04-29 07:51:00,55.7,55.2,29.94,West,270,0.0,1.0,98,0.04,,---,0.05,VWS V14.01,2013-04-29 11:51:00,
2013-04-29 07:56:00,55.7,55.2,29.94,West,270,0.0,1.0,98,0.04,,---,0.05,VWS V14.01,2013-04-29 11:56:00,
2013-04-29 08:00:00,55.8,55.2,29.94,West,281,0.0,1.0,98,0.04,,---,0.05,VWS V15.00,2013-04-29 12:00:00,
2013-04-29 08:01:00,55.8,55.2,29.94,West,281,0.0,1.0,98,0.04,,---,0.05,VWS V14.01,2013-04-29 12:01:00,
2013-04-29 08:06:00,55.8,55.5,29.94,West,281,0.0,0.0,99,0.02,,---,0.05,VWS V14.01,2013-04-29 12:06:00,
2013-04-29 08:11:00,55.9,55.6,29.95,West,281,0.0,0.0,99,0.02,,---,0.05,VWS V14.01,2013-04-29 12:11:00,
2013-04-29 08:16:00,56.0,55.7,29.95,West,280,0.0,0.0,99,0.02,,---,0.05,VWS V14.01,2013-04-29 12:16:00,
2013-04-29 08:21:00,56.0,55.7,29.95,West,280,0.0,0.0,99,0.02,,---,0.05,VWS V14.01,2013-04-29 12:21:00,
2013-04-29 08:26:00,56.0,55.7,29.95,West,280,0.0,0.0,99,0.02,,---,0.05,VWS V14.01,2013-04-29 12:26:00,
2013-04-29 08:30:00,56.0,55.7,29.95,WNW,282,0.0,0.0,99,0.02,,---,0.05,VWS V15.00,2013-04-29 12:30:00,
2013-04-29 08:31:00,56.0,55.7,29.95,West,281,0.0,0.0,99,0.02,,---,0.05,VWS V14.01,2013-04-29 12:31:00,
2013-04-29 08:36:00,56.1,55.8,29.95,West,281,0.0,0.0,99,0.00,,---,0.05,VWS V14.01,2013-04-29 12:36:00,
2013-04-29 08:41:00,56.1,55.8,29.95,West,281,0.0,0.0,99,0.00,,---,0.05,VWS V14.01,2013-04-29 12:41:00,
2013-04-29 08:45:00,56.1,55.8,29.96,West,281,0.0,0.0,99,0.00,,---,0.05,VWS V14.01,2013-04-29 12:45:00,
2013-04-29 08:50:00,56.1,55.8,29.96,West,278,0.0,0.0,99,0.00,,---,0.05,VWS V14.01,2013-04-29 12:50:00,
2013-04-29 08:55:00,56.1,55.8,29.96,West,278,0.0,0.0,99,0.00,,---,0.05,VWS V14.01,2013-04-29 12:55:00,
2013-04-29 09:00:00,56.1,55.8,29.96,West,280,0.0,0.0,99,0.00,,---,0.05,VWS V14.01,2013-04-29 13:00:00,
2013-04-29 09:05:00,56.1,55.8,29.96,West,281,0.0,0.0,99,0.00,,---,0.05,VWS V14.01,2013-04-29 13:05:00,
2013-04-29 09:10:00,56.1,55.8,29.96,West,279,0.0,0.0,99,0.00,,---,0.05,VWS V14.01,2013-04-29 13:10:00,
2013-04-29 09:15:00,56.1,55.8,29.95,West,278,0.0,0.0,99,0.00,,---,0.05,VWS V14.01,2013-04-29 13:15:00,
2013-04-29 09:20:00,56.0,55.7,29.95,West,278,0.0,0.0,99,0.00,,---,0.05,VWS V14.01,2013-04-29 13:20:00,
2013-04-29 09:25:00,56.1,55.8,29.96,West,278,0.0,0.0,99,0.00,,---,0.05,VWS V14.01,2013-04-29 13:25:00,
2013-04-29 09:30:00,56.2,55.9,29.96,West,267,0.0,0.0,99,0.00,,---,0.05,VWS V14.01,2013-04-29 13:30:00,
2013-04-29 09:35:00,56.1,55.8,29.96,West,276,0.0,0.0,99,0.00,,---,0.05,VWS V14.01,2013-04-29 13:35:00,
2013-04-29 09:40:00,56.1,55.8,29.96,West,263,0.0,0.0,99,0.00,,---,0.05,VWS V14.01,2013-04-29 13:40:00,
2013-04-29 09:45:00,56.1,55.8,29.96,West,268,1.0,2.0,99,0.00,,---,0.05,VWS V14.01,2013-04-29 13:45:00,
2013-04-29 09:50:00,56.2,55.9,29.96,West,275,1.0,2.0,99,0.00,,---,0.05,VWS V14.01,2013-04-29 13:50:00,
2013-04-29 09:55:00,56.3,56.0,29.97,West,276,1.0,2.0,99,0.00,,---,0.05,VWS V14.01,2013-04-29 13:55:00,
2013-04-29 10:00:00,56.3,56.0,29.97,West,272,0.0,3.0,99,0.00,,---,0.05,VWS V14.01,2013-04-29 14:00:00,
2013-04-29 10:05:00,56.3,56.0,29.96,West,276,0.0,0.0,99,0.00,,---,0.05,VWS V14.01,2013-04-29 14:05:00,
2013-04-29 10:10:00,56.3,56.0,29.96,West,281,1.0,2.0,99,0.00,,---,0.05,VWS V14.01,2013-04-29 14:10:00,
2013-04-29 10:15:00,56.2,55.9,29.96,West,275,1.0,2.0,99,0.00,,---,0.05,VWS V14.01,2013-04-29 14:15:00,
2013-04-29 10:20:00,56.3,56.0,29.97,West,270,0.0,2.0,99,0.00,,---,0.05,VWS V14.01,2013-04-29 14:20:00,
2013-04-29 10:25:00,56.4,56.1,29.97,West,281,0.0,2.0,99,0.00,,---,0.05,VWS V14.01,2013-04-29 14:25:00,
2013-04-29 10:30:00,56.5,56.2,29.97,West,274,0.0,2.0,99,0.00,,---,0.05,VWS V14.01,2013-04-29 14:30:00,
2013-04-29 10:35:00,56.5,56.2,29.97,West,281,0.0,1.0,99,0.00,,---,0.05,VWS V14.01,2013-04-29 14:35:00,
2013-04-29 10:40:00,56.6,56.3,29.97,West,271,0.0,1.0,99,0.00,,---,0.05,VWS V14.01,2013-04-29 14:40:00,
2013-04-29 10:45:00,56.7,56.4,29.97,West,271,0.0,1.0,99,0.00,,---,0.05,VWS V14.01,2013-04-29 14:45:00,
2013-04-29 10:50:00,57.0,56.7,29.97,WNW,283,0.0,1.0,99,0.00,,---,0.05,VWS V14.01,2013-04-29 14:50:00,
2013-04-29 10:55:00,57.2,56.9,29.97,West,280,0.0,1.0,99,0.00,,---,0.05,VWS V14.01,2013-04-29 14:55:00,
2013-04-29 11:00:00,57.8,57.5,29.97,West,280,0.0,1.0,99,0.00,,---,0.05,VWS V14.01,2013-04-29 15:00:00,
2013-04-29 11:05:00,57.8,57.2,29.97,West,274,0.0,0.0,98,0.00,,---,0.05,VWS V14.01,2013-04-29 15:05:00,
2013-04-29 11:10:00,58.2,57.6,29.97,SW,224,0.0,1.0,98,0.00,,---,0.05,VWS V14.01,2013-04-29 15:10:00,
2013-04-29 11:15:00,58.4,57.8,29.97,WSW,255,0.0,2.0,98,0.00,,---,0.05,VWS V14.01,2013-04-29 15:15:00,
2013-04-29 11:20:00,58.7,57.8,29.97,SW,226,1.0,2.0,97,0.00,,---,0.05,VWS V14.01,2013-04-29 15:20:00,
2013-04-29 11:25:00,58.8,57.7,29.97,West,277,0.0,2.0,96,0.00,,---,0.05,VWS V14.01,2013-04-29 15:25:00,
2013-04-29 11:30:00,58.7,57.3,29.97,WNW,292,0.0,2.0,95,0.00,,---,0.05,VWS V14.01,2013-04-29 15:30:00,
2013-04-29 11:35:00,59.1,57.7,29.98,West,262,0.0,1.0,95,0.00,,---,0.05,VWS V14.01,2013-04-29 15:35:00,
2013-04-29 11:40:00,59.2,57.5,29.98,SSE,164,1.0,1.0,94,0.00,,---,0.05,VWS V14.01,2013-04-29 15:40:00,
2013-04-29 11:45:00,59.2,57.2,29.97,SSW,212,0.0,2.0,93,0.00,,---,0.05,VWS V14.01,2013-04-29 15:45:00,
2013-04-29 11:50:00,59.3,57.3,29.98,SSE,164,0.0,2.0,93,0.00,,---,0.05,VWS V14.01,2013-04-29 15:50:00,
2013-04-29 11:55:00,59.4,57.4,29.98,SSE,165,0.0,2.0,93,0.00,,---,0.05,VWS V14.01,2013-04-29 15:55:00,
2013-04-29 12:00:00,59.5,57.5,29.98,SSE,165,0.0,2.0,93,0.00,,---,0.05,VWS V14.01,2013-04-29 16:00:00,
2013-04-29 12:05:00,59.5,57.2,29.98,West,267,1.0,1.0,92,0.00,,---,0.05,VWS V14.01,2013-04-29 16:05:00,
2013-04-29 12:10:00,59.2,56.9,29.98,West,268,0.0,1.0,92,0.00,,---,0.05,VWS V14.01,2013-04-29 16:10:00,
2013-04-29 12:15:00,59.1,56.8,29.98,WNW,284,0.0,2.0,92,0.00,,---,0.05,VWS V14.01,2013-04-29 16:15:00,
2013-04-29 12:20:00,59.2,56.9,29.98,South,181,0.0,2.0,92,0.00,,---,0.05,VWS V14.01,2013-04-29 16:20:00,
2013-04-29 12:25:00,59.5,57.2,29.98,SSW,198,0.0,2.0,92,0.00,,---,0.05,VWS V14.01,2013-04-29 16:25:00,
2013-04-29 12:30:00,59.5,56.9,29.98,West,276,1.0,2.0,91,0.00,,---,0.05,VWS V14.01,2013-04-29 16:30:00,
2013-04-29 12:35:00,59.4,56.5,29.98,West,274,2.0,2.0,90,0.00,,---,0.05,VWS V14.01,2013-04-29 16:35:00,
2013-04-29 12:40:00,59.2,56.6,29.98,West,281,1.0,2.0,91,0.00,,---,0.05,VWS V14.01,2013-04-29 16:40:00,
2013-04-29 12:45:00,59.1,56.8,29.98,West,281,0.0,2.0,92,0.00,,---,0.05,VWS V14.01,2013-04-29 16:45:00,
2013-04-29 12:50:00,59.1,56.8,29.98,West,271,0.0,2.0,92,0.00,,---,0.05,VWS V14.01,2013-04-29 16:50:00,
2013-04-29 12:55:00,59.1,56.8,29.98,NW,305,1.0,2.0,92,0.00,,---,0.05,VWS V14.01,2013-04-29 16:55:00,
2013-04-29 13:00:00,59.0,56.7,29.98,WNW,298,0.0,2.0,92,0.00,,---,0.05,VWS V14.01,2013-04-29 17:00:00,
2013-04-29 13:05:00,58.9,56.6,29.98,WNW,298,0.0,1.0,92,0.00,,---,0.05,VWS V14.01,2013-04-29 17:05:00,
2013-04-29 13:10:00,59.0,56.7,29.97,West,278,1.0,1.0,92,0.00,,---,0.05,VWS V14.01,2013-04-29 17:10:00,
2013-04-29 13:15:00,59.0,56.7,29.97,West,280,0.0,1.0,92,0.00,,---,0.05,VWS V14.01,2013-04-29 17:15:00,
2013-04-29 13:20:00,59.0,56.7,29.97,WNW,285,0.0,1.0,92,0.00,,---,0.05,VWS V14.01,2013-04-29 17:20:00,
2013-04-29 13:25:00,59.0,56.7,29.97,WNW,285,0.0,1.0,92,0.00,,---,0.05,VWS V14.01,2013-04-29 17:25:00,
2013-04-29 13:30:00,59.0,56.7,29.97,WNW,285,0.0,1.0,92,0.00,,---,0.05,VWS V14.01,2013-04-29 17:30:00,
2013-04-29 13:35:00,59.2,56.9,29.97,SSE,152,0.0,1.0,92,0.00,,---,0.05,VWS V14.01,2013-04-29 17:35:00,
2013-04-29 13:40:00,59.4,57.1,29.97,SSW,210,0.0,2.0,92,0.00,,---,0.05,VWS V14.01,2013-04-29 17:40:00,
2013-04-29 13:45:00,59.8,57.2,29.97,SSE,155,0.0,2.0,91,0.00,,---,0.05,VWS V14.01,2013-04-29 17:45:00,
2013-04-29 13:50:00,60.1,57.2,29.97,SSE,149,1.0,2.0,90,0.00,,---,0.05,VWS V14.01,2013-04-29 17:50:00,
2013-04-29 13:55:00,60.6,57.7,29.96,South,169,3.0,6.0,90,0.00,,---,0.05,VWS V14.01,2013-04-29 17:55:00,
2013-04-29 14:00:00,61.2,57.9,29.96,ESE,114,3.0,6.0,89,0.00,,---,0.05,VWS V14.01,2013-04-29 18:00:00,
2013-04-29 14:05:00,61.5,57.6,29.96,SSE,148,4.0,5.0,87,0.00,,---,0.05,VWS V14.01,2013-04-29 18:05:00,
2013-04-29 14:10:00,61.6,57.7,29.96,SSW,195,0.0,5.0,87,0.00,,---,0.05,VWS V14.01,2013-04-29 18:10:00,
2013-04-29 14:15:00,62.0,57.8,29.96,SSW,198,0.0,5.0,86,0.00,,---,0.05,VWS V14.01,2013-04-29 18:15:00,
2013-04-29 14:20:00,62.7,58.8,29.96,SSE,155,1.0,5.0,87,0.00,,---,0.05,VWS V14.01,2013-04-29 18:20:00,
2013-04-29 14:25:00,63.1,57.9,29.96,SW,221,0.0,5.0,83,0.00,,---,0.05,VWS V14.01,2013-04-29 18:25:00,
2013-04-29 14:30:00,63.1,57.5,29.95,SSW,211,4.0,5.0,82,0.00,,---,0.05,VWS V14.01,2013-04-29 18:30:00,
2013-04-29 14:35:00,63.1,57.5,29.95,SE,144,1.0,6.0,82,0.00,,---,0.05,VWS V14.01,2013-04-29 18:35:00,
2013-04-29 14:40:00,63.2,57.6,29.95,South,172,2.0,6.0,82,0.00,,---,0.05,VWS V14.01,2013-04-29 18:40:00,
2013-04-29 14:45:00,63.0,57.4,29.95,SSW,195,2.0,6.0,82,0.00,,---,0.05,VWS V14.01,2013-04-29 18:45:00,
2013-04-29 14:50:00,62.9,57.3,29.95,SSW,200,2.0,6.0,82,0.00,,---,0.05,VWS V14.01,2013-04-29 18:50:00,
2013-04-29 14:55:00,63.0,57.1,29.95,SE,140,0.0,6.0,81,0.00,,---,0.05,VWS V14.01,2013-04-29 18:55:00,
2013-04-29 15:00:00,63.3,57.4,29.95,SSW,194,2.0,6.0,81,0.00,,---,0.05,VWS V14.01,2013-04-29 19:00:00,
2013-04-29 15:05:00,63.8,56.8,29.95,WSW,240,2.0,5.0,78,0.00,,---,0.05,VWS V14.01,2013-04-29 19:05:00,
2013-04-29 15:10:00,64.2,57.2,29.95,SW,226,0.0,5.0,78,0.00,,---,0.05,VWS V14.01,2013-04-29 19:10:00,
2013-04-29 15:15:00,64.5,57.1,29.95,SSE,161,3.0,7.0,77,0.00,,---,0.05,VWS V14.01,2013-04-29 19:15:00,
2013-04-29 15:20:00,64.8,57.4,29.95,SSW,205,2.0,7.0,77,0.00,,---,0.05,VWS V14.01,2013-04-29 19:20:00,
2013-04-29 15:25:00,65.0,57.3,29.94,SSW,207,4.0,7.0,76,0.00,,---,0.05,VWS V14.01,2013-04-29 19:25:00,
2013-04-29 15:30:00,65.2,57.5,29.94,SSW,203,1.0,7.0,76,0.00,,---,0.05,VWS V14.01,2013-04-29 19:30:00,
2013-04-29 15:35:00,65.1,57.4,29.94,South,184,4.0,7.0,76,0.00,,---,0.05,VWS V14.01,2013-04-29 19:35:00,
2013-04-29 15:40:00,65.2,57.5,29.94,South,169,0.0,7.0,76,0.00,,---,0.05,VWS V14.01,2013-04-29 19:40:00,
2013-04-29 15:45:00,65.3,57.5,29.94,West,269,1.0,7.0,76,0.00,,---,0.05,VWS V14.01,2013-04-29 19:45:00,
2013-04-29 15:50:00,65.0,56.9,29.94,WNW,287,1.0,7.0,75,0.00,,---,0.05,VWS V14.01,2013-04-29 19:50:00,
2013-04-29 15:55:00,64.7,55.9,29.94,West,273,2.0,7.0,73,0.00,,---,0.05,VWS V14.01,2013-04-29 19:55:00,
2013-04-29 16:00:00,64.7,57.0,29.94,West,277,1.0,7.0,76,0.00,,---,0.05,VWS V14.01,2013-04-29 20:00:00,
2013-04-29 16:05:00,64.7,57.0,29.94,West,264,0.0,2.0,76,0.00,,---,0.05,VWS V14.01,2013-04-29 20:05:00,
2013-04-29 16:10:00,65.2,57.5,29.94,South,175,1.0,4.0,76,0.00,,---,0.05,VWS V14.01,2013-04-29 20:10:00,
2013-04-29 16:15:00,65.4,56.9,29.94,West,264,0.0,4.0,74,0.00,,---,0.05,VWS V14.01,2013-04-29 20:15:00,
2013-04-29 16:20:00,65.5,57.4,29.94,SSE,167,1.0,4.0,75,0.00,,---,0.05,VWS V14.01,2013-04-29 20:20:00,
2013-04-29 16:25:00,65.4,56.2,29.94,ESE,122,3.0,4.0,72,0.00,,---,0.05,VWS V14.01,2013-04-29 20:25:00,
2013-04-29 16:30:00,65.3,56.8,29.94,WSW,249,0.0,4.0,74,0.00,,---,0.05,VWS V14.01,2013-04-29 20:30:00,
2013-04-29 16:35:00,65.4,56.9,29.94,SW,224,1.0,4.0,74,0.00,,---,0.05,VWS V14.01,2013-04-29 20:35:00,
2013-04-29 16:40:00,65.5,56.2,29.93,WSW,256,1.0,4.0,72,0.00,,---,0.05,VWS V14.01,2013-04-29 20:40:00,
2013-04-29 16:45:00,65.2,56.0,29.93,WNW,293,1.0,4.0,72,0.00,,---,0.05,VWS V14.01,2013-04-29 20:45:00,
2013-04-29 16:50:00,65.3,56.8,29.93,West,276,2.0,4.0,74,0.00,,---,0.05,VWS V14.01,2013-04-29 20:50:00,
2013-04-29 16:55:00,65.2,56.3,29.94,South,182,3.0,4.0,73,0.00,,---,0.05,VWS V14.01,2013-04-29 20:55:00,
2013-04-29 17:00:00,65.1,55.1,29.93,WSW,245,1.0,4.0,70,0.00,,---,0.05,VWS V14.01,2013-04-29 21:00:00,
2013-04-29 17:05:00,64.9,55.3,29.93,South,174,0.0,3.0,71,0.00,,---,0.05,VWS V14.01,2013-04-29 21:05:00,
2013-04-29 17:10:00,65.3,55.7,29.93,South,174,6.0,7.0,71,0.00,,---,0.05,VWS V14.01,2013-04-29 21:10:00,
2013-04-29 17:15:00,65.1,55.1,29.94,SSW,209,2.0,7.0,70,0.00,,---,0.05,VWS V14.01,2013-04-29 21:15:00,
2013-04-29 17:20:00,65.0,55.0,29.94,SSW,213,2.0,7.0,70,0.00,,---,0.05,VWS V14.01,2013-04-29 21:20:00,
2013-04-29 17:25:00,64.8,55.2,29.93,SSE,160,5.0,8.0,71,0.00,,---,0.05,VWS V14.01,2013-04-29 21:25:00,
2013-04-29 17:30:00,64.7,54.7,29.93,SSE,156,1.0,8.0,70,0.00,,---,0.05,VWS V14.01,2013-04-29 21:30:00,
2013-04-29 17:35:00,64.6,55.4,29.94,SW,231,3.0,5.0,72,0.00,,---,0.05,VWS V14.01,2013-04-29 21:35:00,
2013-04-29 17:40:00,64.4,55.2,29.94,West,260,2.0,5.0,72,0.00,,---,0.05,VWS V14.01,2013-04-29 21:40:00,
2013-04-29 17:45:00,64.3,55.1,29.94,NW,316,2.0,5.0,72,0.00,,---,0.05,VWS V14.01,2013-04-29 21:45:00,
2013-04-29 17:50:00,64.2,55.0,29.94,SW,215,3.0,5.0,72,0.00,,---,0.05,VWS V14.01,2013-04-29 21:50:00,
2013-04-29 17:55:00,64.3,55.1,29.93,SE,146,5.0,5.0,72,0.00,,---,0.05,VWS V14.01,2013-04-29 21:55:00,
2013-04-29 18:00:00,64.2,54.6,29.94,SSW,207,0.0,7.0,71,0.00,,---,0.05,VWS V14.01,2013-04-29 22:00:00,
2013-04-29 18:05:00,64.0,54.4,29.93,SW,214,1.0,3.0,71,0.00,,---,0.05,VWS V14.01,2013-04-29 22:05:00,
2013-04-29 18:10:00,64.0,54.4,29.94,SSE,166,3.0,5.0,71,0.00,,---,0.05,VWS V14.01,2013-04-29 22:10:00,
2013-04-29 18:15:00,64.2,55.0,29.93,SSE,152,1.0,5.0,72,0.00,,---,0.05,VWS V14.01,2013-04-29 22:15:00,
2013-04-29 18:20:00,64.2,55.0,29.93,SSW,212,4.0,5.0,72,0.00,,---,0.05,VWS V14.01,2013-04-29 22:20:00,
2013-04-29 18:25:00,64.1,54.9,29.93,WSW,240,1.0,7.0,72,0.00,,---,0.05,VWS V14.01,2013-04-29 22:25:00,
2013-04-29 18:30:00,64.1,54.9,29.93,SSW,207,2.0,7.0,72,0.00,,---,0.05,VWS V14.01,2013-04-29 22:30:00,
2013-04-29 18:35:00,64.0,54.8,29.93,SW,225,2.0,3.0,72,0.00,,---,0.05,VWS V14.01,2013-04-29 22:35:00,
2013-04-29 18:40:00,63.9,55.1,29.93,SSW,208,0.0,3.0,73,0.00,,---,0.05,VWS V14.01,2013-04-29 22:40:00,
2013-04-29 18:45:00,64.0,55.6,29.93,SSW,211,0.0,3.0,74,0.00,,---,0.05,VWS V14.01,2013-04-29 22:45:00,
2013-04-29 18:50:00,64.0,55.6,29.93,SW,226,1.0,3.0,74,0.00,,---,0.05,VWS V14.01,2013-04-29 22:50:00,
2013-04-29 18:55:00,63.8,55.4,29.93,SW,214,2.0,3.0,74,0.00,,---,0.05,VWS V14.01,2013-04-29 22:55:00,
2013-04-29 19:00:00,63.8,55.7,29.93,South,176,2.0,5.0,75,0.00,,---,0.05,VWS V14.01,2013-04-29 23:00:00,
2013-04-29 19:05:00,63.8,55.4,29.93,SSE,167,1.0,4.0,74,0.00,,---,0.05,VWS V14.01,2013-04-29 23:05:00,
2013-04-29 19:10:00,63.6,55.2,29.93,SSW,205,0.0,4.0,74,0.00,,---,0.05,VWS V14.01,2013-04-29 23:10:00,
2013-04-29 19:15:00,63.4,55.3,29.93,SW,219,2.0,4.0,75,0.00,,---,0.05,VWS V14.01,2013-04-29 23:15:00,
2013-04-29 19:20:00,63.3,55.6,29.93,SSW,204,0.0,4.0,76,0.00,,---,0.05,VWS V14.01,2013-04-29 23:20:00,
2013-04-29 19:25:00,63.2,55.5,29.93,SSE,165,0.0,4.0,76,0.00,,---,0.05,VWS V14.01,2013-04-29 23:25:00,
2013-04-29 19:30:00,63.2,55.5,29.93,SSE,162,1.0,4.0,76,0.00,,---,0.05,VWS V14.01,2013-04-29 23:30:00,
2013-04-29 19:35:00,63.2,55.2,29.93,South,187,2.0,3.0,75,0.00,,---,0.05,VWS V14.01,2013-04-29 23:35:00,
2013-04-29 19:40:00,63.1,55.4,29.93,SE,146,3.0,3.0,76,0.00,,---,0.05,VWS V14.01,2013-04-29 23:40:00,
2013-04-29 19:45:00,63.0,55.3,29.93,South,173,1.0,3.0,76,0.00,,---,0.05,VWS V14.01,2013-04-29 23:45:00,
2013-04-29 19:50:00,63.0,55.0,29.93,SE,141,0.0,4.0,75,0.00,,---,0.05,VWS V14.01,2013-04-29 23:50:00,
2013-04-29 19:55:00,62.9,54.9,29.93,SSW,208,1.0,5.0,75,0.00,,---,0.05,VWS V14.01,2013-04-29 23:55:00,
2013-04-29 20:00:00,62.6,54.6,29.93,SSE,164,0.0,5.0,75,0.00,,---,0.05,VWS V14.01,2013-04-30 00:00:00,
2013-04-29 20:05:00,62.4,54.4,29.93,SW,224,1.0,1.0,75,0.00,,---,0.05,VWS V14.01,2013-04-30 00:05:00,
2013-04-29 20:10:00,62.2,54.2,29.93,SW,215,0.0,1.0,75,0.00,,---,0.05,VWS V14.01,2013-04-30 00:10:00,
2013-04-29 20:15:00,62.1,54.5,29.93,SSE,156,0.0,1.0,76,0.00,,---,0.05,VWS V14.01,2013-04-30 00:15:00,
2013-04-29 20:20:00,61.9,54.3,29.93,SSW,199,0.0,1.0,76,0.00,,---,0.05,VWS V14.01,2013-04-30 00:20:00,
2013-04-29 20:25:00,61.7,54.4,29.93,SSW,198,0.0,1.0,77,0.00,,---,0.05,VWS V14.01,2013-04-30 00:25:00,
2013-04-29 20:30:00,61.4,54.5,29.93,SSW,198,0.0,1.0,78,0.00,,---,0.05,VWS V14.01,2013-04-30 00:30:00,
2013-04-29 20:35:00,60.9,54.3,29.93,ESE,110,0.0,0.0,79,0.00,,---,0.05,VWS V14.01,2013-04-30 00:35:00,
2013-04-29 20:40:00,60.5,54.3,29.93,ESE,112,0.0,1.0,80,0.00,,---,0.05,VWS V14.01,2013-04-30 00:40:00,
2013-04-29 20:44:00,60.3,54.5,29.93,ESE,112,0.0,1.0,81,0.00,,---,0.05,VWS V14.01,2013-04-30 00:44:00,
2013-04-29 20:49:00,59.8,54.3,29.93,ESE,111,0.0,1.0,82,0.00,,---,0.05,VWS V14.01,2013-04-30 00:49:00,
2013-04-29 20:54:00,59.4,54.2,29.93,SSE,148,0.0,1.0,83,0.00,,---,0.05,VWS V14.01,2013-04-30 00:54:00,
2013-04-29 20:59:00,59.1,54.3,29.93,SSE,148,0.0,1.0,84,0.00,,---,0.05,VWS V14.01,2013-04-30 00:59:00,
2013-04-29 21:00:00,59.0,54.5,29.93,SSE,148,0.0,1.0,85,0.00,,---,0.05,VWS V15.00,2013-04-30 01:00:00,
2013-04-29 21:04:00,58.8,54.3,29.93,SE,142,0.0,0.0,85,0.00,,---,0.05,VWS V14.01,2013-04-30 01:04:00,
2013-04-29 21:09:00,58.5,54.3,29.93,SE,142,0.0,0.0,86,0.00,,---,0.05,VWS V14.01,2013-04-30 01:09:00,
2013-04-29 21:14:00,58.2,54.0,29.93,SE,142,0.0,0.0,86,0.00,,---,0.05,VWS V14.01,2013-04-30 01:14:00,
2013-04-29 21:19:00,58.0,54.2,29.94,SE,142,0.0,0.0,87,0.00,,---,0.05,VWS V14.01,2013-04-30 01:19:00,
2013-04-29 21:24:00,57.8,54.3,29.94,SE,142,0.0,0.0,88,0.00,,---,0.05,VWS V14.01,2013-04-30 01:24:00,
2013-04-29 21:29:00,57.4,53.9,29.94,SE,142,0.0,0.0,88,0.00,,---,0.05,VWS V14.01,2013-04-30 01:29:00,
2013-04-29 21:30:00,57.3,54.1,29.94,SE,142,0.0,0.0,89,0.00,,---,0.05,VWS V15.00,2013-04-30 01:30:00,
2013-04-29 21:34:00,57.1,53.9,29.94,SE,142,0.0,0.0,89,0.00,,---,0.05,VWS V14.01,2013-04-30 01:34:00,
2013-04-29 21:39:00,57.0,54.1,29.94,SE,134,0.0,1.0,90,0.00,,---,0.05,VWS V14.01,2013-04-30 01:39:00,
2013-04-29 21:44:00,56.8,53.9,29.94,SE,134,0.0,1.0,90,0.00,,---,0.05,VWS V14.01,2013-04-30 01:44:00,
2013-04-29 21:49:00,56.6,54.0,29.94,SE,134,0.0,1.0,91,0.00,,---,0.05,VWS V14.01,2013-04-30 01:49:00,
2013-04-29 21:54:00,56.5,53.9,29.95,East,95,0.0,1.0,91,0.00,,---,0.05,VWS V14.01,2013-04-30 01:54:00,
2013-04-29 21:59:00,56.6,54.0,29.94,East,95,0.0,1.0,91,0.00,,---,0.05,VWS V14.01,2013-04-30 01:59:00,
2013-04-29 22:00:00,56.6,54.0,29.95,East,96,0.0,1.0,91,0.00,,---,0.05,VWS V15.00,2013-04-30 02:00:00,
2013-04-29 22:04:00,56.5,53.9,29.95,East,96,0.0,0.0,91,0.00,,---,0.05,VWS V14.01,2013-04-30 02:04:00,
2013-04-29 22:09:00,56.4,53.8,29.95,East,96,0.0,0.0,91,0.00,,---,0.05,VWS V14.01,2013-04-30 02:09:00,
2013-04-29 22:14:00,56.4,54.1,29.95,SE,143,0.0,0.0,92,0.00,,---,0.05,VWS V14.01,2013-04-30 02:14:00,
2013-04-29 22:19:00,56.3,54.0,29.95,SE,143,0.0,0.0,92,0.00,,---,0.05,VWS V14.01,2013-04-30 02:19:00,
2013-04-29 22:24:00,56.3,54.0,29.95,SE,143,0.0,0.0,92,0.00,,---,0.05,VWS V14.01,2013-04-30 02:24:00,
2013-04-29 22:30:00,56.4,54.1,29.95,ESE,110,0.0,2.0,92,0.00,,---,0.05,VWS V14.01,2013-04-30 02:30:00,
2013-04-29 22:35:00,56.4,54.1,29.95,ESE,118,1.0,1.0,92,0.00,,---,0.05,VWS V14.01,2013-04-30 02:35:00,
2013-04-29 22:40:00,56.4,54.1,29.95,ESE,107,0.0,2.0,92,0.00,,---,0.05,VWS V14.01,2013-04-30 02:40:00,
2013-04-29 22:45:00,56.4,53.8,29.94,SE,131,0.0,2.0,91,0.00,,---,0.05,VWS V14.01,2013-04-30 02:45:00,
2013-04-29 22:50:00,56.5,53.9,29.94,SE,146,1.0,2.0,91,0.00,,---,0.05,VWS V14.01,2013-04-30 02:50:00,
2013-04-29 22:55:00,56.5,53.9,29.94,ESE,122,3.0,3.0,91,0.00,,---,0.05,VWS V14.01,2013-04-30 02:55:00,
2013-04-29 23:00:00,56.7,54.1,29.94,SSE,152,1.0,7.0,91,0.00,,---,0.05,VWS V14.01,2013-04-30 03:00:00,
2013-04-29 23:05:00,56.9,54.0,29.94,South,181,2.0,5.0,90,0.00,,---,0.05,VWS V14.01,2013-04-30 03:05:00,
2013-04-29 23:10:00,57.1,54.2,29.94,SSE,153,1.0,5.0,90,0.00,,---,0.05,VWS V14.01,2013-04-30 03:10:00,
2013-04-29 23:15:00,57.2,54.3,29.94,SE,145,1.0,5.0,90,0.00,,---,0.05,VWS V14.01,2013-04-30 03:15:00,
2013-04-29 23:20:00,57.5,54.3,29.94,East,88,2.0,7.0,89,0.00,,---,0.05,VWS V14.01,2013-04-30 03:20:00,
2013-04-29 23:25:00,57.8,54.6,29.94,South,172,3.0,7.0,89,0.00,,---,0.05,VWS V14.01,2013-04-30 03:25:00,
2013-04-29 23:30:00,57.9,54.7,29.95,SSW,192,2.0,7.0,89,0.00,,---,0.05,VWS V14.01,2013-04-30 03:30:00,
2013-04-29 23:35:00,58.0,54.5,29.95,South,173,1.0,5.0,88,0.00,,---,0.05,VWS V14.01,2013-04-30 03:35:00,
2013-04-29 23:40:00,57.9,54.7,29.95,South,179,2.0,5.0,89,0.00,,---,0.05,VWS V14.01,2013-04-30 03:40:00,
2013-04-29 23:45:00,57.8,54.6,29.95,SSE,167,0.0,5.0,89,0.00,,---,0.05,VWS V14.01,2013-04-30 03:45:00,
2013-04-29 23:50:00,57.7,54.5,29.95,SE,146,4.0,5.0,89,0.00,,---,0.05,VWS V14.01,2013-04-30 03:50:00,
2013-04-29 23:55:00,57.6,54.4,29.95,South,170,1.0,5.0,89,0.00,,---,0.05,VWS V14.01,2013-04-30 03:55:00,